Helicity
323 312 336 239 300 308 281 230 197 165 177 205 230 175 128 181 204 245 234 235 165 123 138 136 185 184 205 193 189 167 155 129 111 83 93 48 14 78 42 39 51 61 74
411 340 267 246 274 242 226 179 175 192 163 149 133 118 104 137 185 177 136 104 110 119 149 151 121 141 172 242 220 155 109 69 83 46 43 73 78 82 86 50 36 37 23
136 131 131 137 164 179 149 97 50 46 70 70 64 84 95 101 109 130 131 143 148 171 163 155 151 154 167 187 148 132 111 66 55 93 124 151 141 76 50 91 43 17 1
2 -38 8 72 90 62 19 42 63 67 69 55 55 59 60 72 80 87 90 133 167 184 183 240 184 250 148 79 75 116 114 122 163 83 156 118 101 88 63 127 84 6 -13
-24 -38 8 -4 17 23 48 58 72 76 33 40 44 34 40 101 169 203 249 259 259 301 318 237 187 171 107 110 73 64 86 74 73 65 41 49 90 103 130 81 62 67 37
-85 -57 -8 7 30 54 70 77 83 78 76 84 110 144 183 218 264 276 288 268 227 216 180 178 180 74 170 91 67 110 128 112 115 123 156 195 201 223 167 151 118 32 -17
-5 11 135 160 157 138 121 136 139 139 144 186 231 268 261 216 189 200 260 231 212 253 173 219 176 189 159 144 138 125 104 98 102 114 165 220 221 172 150 130 101 53 40
180 289 255 238 214 191 190 177 161 167 175 180 185 213 206 221 241 228 227 187 169 158 212 170 235 345 71 126 139 124 93 106 137 144 170 203 170 163 153 139 140 114 81
326 404 364 293 254 213 188 181 183 202 210 181 199 195 172 185 199 160 143 121 156 167 206 328 351 177 52 79 72 75 22 80 126 119 129 150 153 149 135 124 106 101 89
427 398 352 294 251 220 200 205 235 269 204 170 147 145 165 145 129 138 159 187 181 205 284 226 125 68 226 79 37 29 55 93 118 107 102 100 103 98 96 97 94 99 91
373 398 377 297 227 173 201 210 253 224 177 162 144 147 136 123 119 142 162 177 229 273 231 269 254 151 81 68 36 33 67 111 111 146 142 115 104 102 96 91 91 96 120
435 392 308 220 158 167 127 150 189 170 121 96 84 78 62 66 82 94 148 250 278 314 279 228 97 54 78 53 58 60 113 125 147 154 137 116 109 109 96 88 75 88 110
360 291 214 165 137 94 153 192 158 115 84 87 75 54 43 58 83 96 167 247 212 164 164 131 102 84 87 82 90 115 147 178 165 136 139 132 131 127 111 98 96 100 99
274 220 174 130 97 110 189 138 112 83 74 73 77 66 52 65 81 91 111 154 180 181 160 131 121 115 95 100 141 194 194 148 144 158 169 167 164 147 130 106 107 90 118
230 225 214 104 105 154 118 112 84 74 67 91 57 48 45 50 78 101 118 137 128 126 109 135 136 94 94 121 161 154 144 147 159 159 159 159 146 95 100 113 107 96 109
231 173 107 127 134 87 93 94 71 77 87 73 58 51 68 81 99 106 104 98 112 105 117 100 93 50 128 121 122 138 150 153 147 155 162 155 103 99 73 66 63 72 96
139 113 92 53 64 90 89 85 93 116 112 96 78 84 102 103 108 110 105 109 114 145 84 115 120 137 124 125 121 117 152 146 159 167 150 121 122 94 104 74 64 54 47
106 57 34 54 77 103 117 119 139 144 147 119 118 126 125 130 117 115 115 120 113 88 80 137 163 147 147 156 139 148 141 129 146 144 117 110 109 98 75 77 79 81 59
72 93 106 101 126 138 138 159 169 168 160 164 158 150 135 141 130 117 109 119 110 107 144 166 160 152 112 104 106 99 106 115 122 116 91 89 82 52 34 68 64 54 35
202 152 147 182 192 168 172 176 174 190 187 179 163 143 138 134 116 104 92 112 132 148 160 163 142 122 96 80 82 80 108 119 123 109 73 57 55 31 30 58 55 41 7
257 229 235 204 161 170 211 192 182 194 194 175 149 152 125 119 107 111 108 107 134 169 139 113 115 108 86 76 72 69 87 103 113 101 73 84 35 33 36 47 55 28 -24
263 243 223 196 188 190 186 184 198 190 167 155 161 155 131 130 122 112 102 117 135 145 132 119 95 86 75 71 58 60 49 63 115 91 74 78 29 32 34 45 29 13 2
244 216 197 179 148 159 172 192 184 167 152 153 169 168 153 131 112 109 119 126 130 121 99 85 86 75 72 59 50 43 41 59 77 75 43 37 34 44 53 31 26 24 12
219 178 162 139 141 155 180 184 161 136 132 130 144 166 149 109 101 104 120 127 119 102 89 87 77 81 76 68 64 61 52 53 48 52 37 37 42 59 68 78 61 40 24
162 142 128 139 143 158 165 144 130 118 125 124 126 135 135 110 98 86 92 88 83 99 96 85 91 112 84 78 53 62 65 53 50 65 28 15 17 37 40 63 62 12 -5
139 140 145 145 154 163 156 132 121 113 123 111 98 118 125 119 104 90 81 56 53 66 68 77 102 90 72 58 37 59 62 46 49 57 45 1 -2 -2 21 -3 -43 -38 -24
Wind_Speed
27 25 24 24 23 23 22 22 26 29 29 33 35 36 37 42 42 49 51 50 50 54 58 61 66 69 71 71 73 73 77 79 84 84 92 84 73 76 67 66 70 72 73
31 32 31 30 29 27 29 31 30 32 34 35 38 39 41 42 45 48 50 51 55 57 61 65 68 69 70 73 75 78 79 77 79 88 95 99 92 68 78 71 70 74 75
31 31 30 31 31 31 32 32 31 32 33 36 39 41 42 42 45 50 53 58 58 61 64 64 66 68 68 70 73 77 79 84 78 79 81 96 99 97 75 87 75 82 84
30 30 30 32 32 32 32 33 35 38 39 38 43 46 46 48 50 50 52 56 59 61 62 63 65 66 67 70 72 73 75 77 86 75 77 75 82 100 115 82 96 86 96
26 28 31 31 31 31 33 33 36 38 40 44 47 49 50 52 50 52 57 62 64 65 66 67 70 68 64 66 70 74 74 73 76 79 83 84 88 82 92 115 98 96 95
20 24 29 31 35 38 39 38 39 43 47 47 52 53 53 52 54 60 68 72 72 70 72 71 61 57 61 67 70 72 73 74 74 75 78 83 88 93 93 99 107 108 103
17 21 31 38 38 39 42 41 44 51 52 53 56 56 54 54 59 64 69 77 78 75 68 57 56 60 63 66 67 70 71 71 75 75 77 77 79 79 84 89 97 94 93
25 29 33 35 38 40 43 46 49 52 56 59 60 58 58 61 64 65 73 77 77 69 56 53 57 64 58 62 64 66 68 69 71 72 71 73 70 66 67 70 79 91 81
21 28 30 34 37 41 47 50 53 55 60 66 69 69 67 68 71 74 76 76 67 58 52 53 65 60 59 65 66 67 67 67 67 67 68 61 58 60 60 64 67 72 88
19 23 27 31 37 44 48 53 55 61 67 71 73 74 75 75 75 76 76 68 58 56 54 65 64 57 66 64 64 66 63 65 63 63 62 60 57 60 60 67 69 68 71
17 21 27 33 38 42 48 52 57 61 67 71 76 79 81 84 85 81 72 64 60 57 62 64 61 66 58 57 61 65 66 66 64 60 60 66 68 70 74 75 75 76 72
19 22 26 33 37 42 47 54 58 64 69 72 78 81 82 88 89 85 74 66 64 62 61 61 66 57 55 58 62 64 63 63 64 60 64 70 73 78 79 81 81 78 74
21 25 29 32 37 45 49 55 61 67 70 76 81 85 89 89 89 84 70 62 59 59 64 68 64 52 53 59 59 57 60 59 58 60 66 73 75 77 77 77 76 73 71
25 28 32 32 38 46 50 57 62 66 72 78 83 86 86 84 83 77 68 65 65 68 65 59 53 46 54 54 52 48 51 52 56 63 67 69 68 71 72 71 64 64 67
27 31 37 36 43 47 52 57 62 67 72 78 80 82 82 80 79 76 74 69 66 62 57 51 42 47 44 46 44 46 48 57 64 66 66 63 61 64 65 62 64 62 61
33 36 44 42 46 48 52 56 62 66 70 75 78 79 82 82 79 80 77 68 62 58 43 42 42 39 42 43 43 49 55 63 65 68 65 62 60 57 64 63 60 58 56
36 41 46 42 43 44 49 57 62 66 70 75 76 78 78 81 83 79 70 63 58 47 40 44 37 39 44 47 50 56 57 64 66 66 63 59 57 61 56 53 51 49 49
39 42 42 43 42 45 52 59 65 68 72 76 76 77 80 83 81 74 65 56 50 40 43 36 37 44 51 54 56 59 62 63 64 63 59 52 53 49 47 45 50 43 42
39 42 38 46 46 50 59 67 71 70 74 79 78 78 80 83 77 73 63 53 46 43 36 36 42 48 51 54 58 60 58 65 65 59 53 50 48 46 43 43 38 32 31
44 46 48 49 52 61 65 69 71 76 79 78 76 76 81 77 72 65 56 47 43 40 35 41 43 47 52 55 58 63 61 64 63 58 53 48 47 47 47 41 33 22 13
44 45 50 57 62 63 69 78 79 77 74 71 72 76 75 70 64 56 49 45 39 36 36 38 41 46 50 54 60 63 62 61 59 59 54 47 45 52 48 46 33 28 9
44 50 57 63 65 69 77 80 79 74 70 70 74 72 66 63 59 54 47 41 35 34 37 40 41 44 48 51 56 61 63 62 59 55 50 45 51 50 48 43 34 26 9
48 54 61 66 70 72 74 77 77 76 76 78 74 64 60 56 53 48 40 38 36 37 38 41 41 42 44 47 53 58 61 60 58 54 53 56 55 49 44 39 36 22 6
53 59 65 71 74 74 72 75 77 77 76 80 72 57 54 50 49 43 37 36 37 39 39 39 38 38 42 45 52 55 59 55 60 58 57 57 56 47 45 44 35 19 11
57 63 70 73 76 74 74 76 77 74 74 76 68 55 48 43 43 38 35 37 38 36 37 36 34 36 41 45 49 54 57 58 56 54 58 59 61 60 55 48 29 5 27
60 67 71 75 77 75 78 78 75 72 70 71 65 52 40 36 35 34 37 38 40 37 32 29 30 31 35 41 46 49 51 56 55 55 55 58 60 62 61 62 40 32 34
Wind_Direction
358 1 8 21 16 6 0 359 358 8 7 2 1 359 351 350 349 346 345 346 347 345 344 343 341 339 337 336 336 334 331 329 328 324 320 319 320 319 317 317 315 314 313
28 36 42 37 26 19 17 14 7 6 5 2 358 351 345 344 345 345 345 345 343 342 342 339 338 338 336 335 334 333 330 328 330 323 319 315 314 316 315 312 312 311 311
39 35 37 37 32 16 14 19 17 8 1 354 351 350 348 345 340 339 339 341 343 342 341 340 338 338 337 335 334 333 331 325 326 327 323 316 310 313 313 308 307 308 307
43 49 33 30 30 21 16 15 8 360 357 358 351 346 343 340 340 340 342 342 341 340 341 340 339 337 336 334 334 335 333 330 324 325 324 321 316 311 305 309 307 305 304
47 48 36 30 24 17 10 6 359 356 354 350 347 345 342 341 342 342 341 339 339 339 338 336 333 333 335 336 335 334 332 330 325 323 320 317 315 311 308 304 304 304 303
39 33 31 18 8 4 8 5 1 356 350 347 344 341 338 339 339 337 334 334 333 330 328 329 333 333 332 332 331 331 330 328 326 323 321 318 315 311 308 304 302 301 301
16 18 360 356 1 359 358 358 353 349 350 349 346 346 345 342 337 334 333 331 330 328 330 331 331 331 332 332 332 332 331 330 328 326 324 322 319 317 313 309 306 305 305
349 346 355 360 0 2 1 357 354 351 349 348 346 345 343 339 337 335 333 331 331 329 331 334 337 338 335 336 335 334 333 331 331 329 330 329 327 326 325 320 315 309 310
3 357 360 1 358 356 352 351 351 351 347 343 343 343 341 337 335 333 332 332 334 337 334 335 334 334 331 334 335 333 332 332 331 330 330 334 333 333 331 327 323 316 307
21 14 10 5 1 354 353 353 353 350 347 345 345 342 341 339 337 334 332 333 334 333 332 329 328 329 330 331 333 332 333 333 334 333 331 332 333 332 330 326 322 318 311
38 19 5 3 359 358 357 357 354 352 350 349 348 346 343 341 338 336 333 330 330 333 332 333 332 328 330 332 331 333 331 332 333 335 333 329 330 327 324 321 318 313 308
25 13 3 356 356 354 353 352 351 349 348 347 346 345 344 342 341 339 336 336 333 334 333 331 330 327 330 332 332 334 333 333 334 335 332 330 329 325 323 320 316 311 306
16 3 356 352 348 346 346 347 346 345 346 346 345 344 343 343 343 342 340 336 333 330 329 328 329 328 332 335 335 337 335 335 337 336 333 331 329 328 327 324 320 316 310
359 352 349 347 345 342 342 342 343 345 345 344 344 343 344 344 343 343 341 335 333 331 334 334 335 336 336 340 342 344 344 342 339 336 335 334 333 331 330 328 326 323 320
348 346 344 341 340 339 338 340 341 342 344 343 344 344 344 343 343 342 339 338 337 338 339 341 344 344 347 349 350 348 346 342 339 338 337 337 336 334 333 332 327 323 318
340 340 337 336 334 335 337 339 340 341 342 343 343 343 343 343 343 341 340 341 339 340 345 345 344 347 353 354 353 350 345 343 341 340 340 339 339 338 334 330 327 324 321
335 335 335 335 334 335 336 337 339 341 341 341 342 343 343 343 343 342 342 343 344 346 347 349 354 356 354 352 350 348 346 345 344 344 343 343 343 340 340 339 335 328 325
334 334 334 335 335 336 338 338 339 339 340 340 341 342 342 341 342 343 343 344 349 350 346 355 356 353 352 353 352 351 350 350 349 348 348 349 349 351 350 347 343 343 338
335 336 337 338 339 339 339 338 337 338 339 340 340 341 341 340 341 341 341 344 346 349 354 355 354 351 352 354 354 353 354 353 352 355 356 358 359 1 358 359 355 347 344
338 341 341 343 342 340 340 339 339 337 337 339 340 341 341 342 343 346 350 355 356 356 359 353 354 353 352 355 356 355 357 356 358 359 2 6 7 5 4 4 5 354 340
345 349 347 343 342 343 342 338 337 336 338 340 340 341 343 345 348 348 349 350 353 357 359 358 357 356 356 358 358 359 1 1 2 1 5 11 12 11 15 18 22 25 24
345 345 343 342 343 342 340 339 339 341 341 339 338 339 343 347 349 351 353 357 2 2 359 357 357 358 359 1 2 3 4 4 5 5 7 14 14 17 22 27 32 42 85
343 343 342 341 341 342 342 341 342 342 340 338 336 337 343 347 351 353 356 359 0 359 357 355 356 358 2 4 4 5 6 9 9 7 4 7 14 23 28 35 43 60 221
340 341 341 340 340 342 343 342 341 341 341 340 340 341 344 349 354 356 359 0 358 355 355 356 358 2 3 5 5 6 8 12 9 10 1 4 12 30 34 39 52 67 262
340 340 340 340 340 342 342 342 343 343 343 345 346 345 346 350 356 2 2 358 357 357 356 359 3 5 4 6 7 7 8 10 10 13 360 358 359 10 24 36 59 299 301
340 340 340 339 340 341 341 342 343 344 342 345 347 346 347 352 357 0 358 359 357 358 1 3 8 9 9 9 9 10 11 11 12 11 11 355 350 348 4 352 312 306 310